Weather observations for the past three days for
Mount Pleasant, Mount Pleasant Municipal Airport
Imperial (Metric)
Date Time (edt) Wind (mph) Vis. (mi.) Weather Sky Cond. Temperature (ºF) Relative Humidity Wind Chill (°F) Heat Index (°F) Pressure Precipitation (in)
Air Dwpt 6 hour altimeter (in) sea level (mb) 1 hr 3 hr 6 hr
Max. Min.
05 00:35 NE 6 10.00 Overcast OVC019 68 62.6 83% 29.98 0.0
05 00:15 NE 6 10.00 Overcast OVC019 68 62.6 83% 29.98 0.0
04 23:55 NE 6 10.00 Overcast OVC019 68 62.6 83% 29.98 0.0
04 23:35 N 5 10.00 Overcast OVC019 68 62.6 83% 29.99 0.0
04 23:15 NE 1 10.00 Overcast OVC019 68 62.6 83% 29.99 0.0
04 22:55 NE 5 10.00 Mostly Cloudy BKN017 68 62.6 83% 29.99 0.0
04 22:35 NE 5 10.00 Mostly Cloudy BKN017 BKN065 68 60.8 78% 29.98 0.0
04 22:15 E 5 10.00 Overcast BKN017 OVC065 69.8 62.6 78% 29.99 0.0
04 21:55 NE 5 10.00 Overcast OVC055 69.8 64.4 83% 29.99 0.0
04 21:35 E 7 10.00 Overcast FEW011 SCT027 OVC055 69.8 64.4 83% 29.99 0.0
04 21:16 E 6 10.00 Overcast BKN011 BKN014 OVC055 71.6 64.4 78% 29.99 0.0
04 20:55 E 9 10.00 Overcast BKN011 OVC015 71.6 66.2 83% 29.99 0.0
04 20:35 E 8 10.00 Overcast OVC011 73.4 66.2 78% 29.98 0.0
04 20:15 E 9 10.00 Overcast OVC011 73.4 68 83% 29.97 0.0
04 19:55 E 8 10.00 Overcast BKN011 OVC046 73.4 68 79.3 74.3 83% 29.96 0.0
04 19:35 NE 6 10.00 Overcast OVC046 75.2 69.8 83% 75 29.96 0.0
04 19:15 NE 5 10.00 Overcast OVC048 77 69.8 79% 79 29.95 0.0
04 18:55 NE 5 10.00 Overcast OVC046 77 69.8 79% 79 29.95 0.0
04 18:35 NE 3 10.00 Overcast OVC042 77 69.8 79% 79 29.94 0.0
04 18:15 NE 2 10.00 Overcast OVC044 78.8 68 70% 81 29.94 0.0
04 17:55 NE 2 10.00 Overcast OVC044 78.8 68 70% 81 29.93 0.0
04 17:35 NE 3 10.00 Overcast BKN043 OVC049 78.8 68 70% 81 29.93 0.0
04 17:15 NE 3 10.00 Overcast OVC050 78.8 68 70% 81 29.94 0.0
04 16:55 NE 3 10.00 Overcast OVC050 78.8 68 70% 81 29.94 0.0
04 16:35 NW 3 10.00 Overcast FEW019 FEW035 OVC050 78.8 68 70% 81 29.94 0.0
04 16:15 E 3 10.00 Mostly Cloudy SCT019 SCT024 BKN050 78.8 68 70% 81 29.95 0.0
04 15:55 Vrbl 3 10.00 Partly Cloudy SCT021 78.8 68 70% 81 29.95 0.0
04 15:35 Vrbl 3 10.00 Mostly Cloudy BKN019 BKN024 78.8 68 70% 81 29.95 0.0
04 15:15 NE 2 10.00 Mostly Cloudy BKN017 77 68 74% 79 29.96 0.0
04 14:55 Vrbl 1 10.00 Mostly Cloudy BKN015 77 68 74% 79 29.95 0.0
04 14:36 Vrbl 3 10.00 Mostly Cloudy BKN013 77 68 74% 79 29.95 0.0
04 14:15 SW 2 10.00 Mostly Cloudy BKN013 77 68 74% 79 29.95 0.0
04 13:55 Vrbl 2 10.00 Overcast OVC011 75.2 68 75 68.5 78% 76 29.95 0.0
04 13:35 Calm 10.00 Overcast BKN009 OVC013 75.2 68 78% 76 29.96 0.0
04 13:15 Vrbl 2 10.00 Overcast OVC007 73.4 68 83% 29.96 0.0
04 12:55 S 3 10.00 Overcast OVC007 73.4 68 83% 29.97 0.0
04 12:35 Calm 10.00 Overcast OVC005 73.4 68 83% 29.98 0.0
04 12:16 SE 6 10.00 Overcast OVC005 73.4 68 83% 29.96 0.0
04 11:55 SE 6 10.00 Overcast OVC005 71.6 68 88% 29.97 0.0
04 11:35 SE 5 10.00 Mostly Cloudy BKN003 71.6 68 88% 29.97 0.0
04 11:15 E 5 10.00 Partly Cloudy SCT003 71.6 68 88% 29.97 0.0
04 10:55 E 3 10.00 A Few Clouds FEW003 69.8 68 94% 29.98 0.0
04 10:35 SE 3 10.00 Partly Cloudy FEW003 SCT034 SCT044 69.8 68 94% 29.99 0.0
04 10:15 S 3 10.00 Overcast BKN003 BKN034 OVC044 69.8 68 94% 29.99 0.0
04 09:55 S 3 10.00 Overcast OVC003 69.8 66.2 88% 29.99 0.0 0.02
04 09:35 E 6 6.00 Light Rain Fog/Mist OVC003 69.8 66.2 88% 29.97 0.0
04 09:15 NE 5 4.00 Light Rain Fog/Mist OVC003 69.8 66.2 88% 29.99 0.0
04 08:55 E 5 4.00 Light Rain Fog/Mist BKN001 OVC019 69.8 66.2 88% 29.99 0.0 0.05
04 08:35 Vrbl 1 3.00 Light Rain Fog/Mist BKN001 BKN016 OVC100 69.8 66.2 88% 29.98 0.0
04 08:15 SE 3 1.75 Light Rain Fog/Mist BKN001 BKN047 OVC065 68 66.2 94% 29.98 0.0
04 07:55 N 2 4.00 Light Rain Fog/Mist SCT003 SCT018 BKN050 68 66.2 69.3 67.8 94% 29.99 0.0 0.06
04 07:35 NW 1 3.00 Light Rain Fog/Mist BKN005 BKN015 OVC065 69.8 66.2 88% 30 0.0
04 07:15 N 3 3.00 Light Rain Fog/Mist BKN003 BKN022 OVC060 69.8 66.2 88% 29.99 0.0
04 06:55 N 2 4.00 Light Rain Fog/Mist SCT003 BKN022 OVC060 69.8 66.2 88% 29.96 0.0 0.02
04 06:35 N 2 5.00 Light Rain Fog/Mist OVC001 69.8 66.2 88% 29.96 0.0
04 06:15 Calm 6.00 Fog/Mist OVC001 69.8 66.2 88% 29.95 0.0
04 05:55 SE 3 5.00 Fog/Mist OVC001 68 66.2 94% 29.94 0.0
04 05:35 E 3 6.00 Fog/Mist OVC001 69.8 66.2 88% 29.95 0.0
04 05:15 E 3 2.00 Fog/Mist BKN001 69.8 66.2 88% 29.94 0.0
04 04:55 SE 2 0.75 Fog/Mist VV005 68 66.2 94% 29.95 0.0
04 04:35 E 2 0.75 Light Rain Fog/Mist VV005 68 66.2 94% 29.95 0.0
04 04:15 E 3 1.00 Fog/Mist BKN001 68 66.2 94% 29.95 0.0
04 03:55 E 2 1.50 Fog/Mist BKN001 BKN026 BKN033 68 66.2 94% 29.96 0.0 0.02
04 03:35 E 2 0.50 Light Rain Fog BKN001 BKN026 BKN033 68 66.2 94% 29.96 0.0
04 03:15 NE 3 0.25 Fog VV002 68 66.2 94% 29.97 0.0
04 02:55 NE 2 0.15 Fog VV000 68 66.2 94% 29.97 0.0
04 02:35 E 2 0.15 Fog VV000 68 66.2 94% 29.96 0.0
04 02:15 E 3 0.50 Fog VV005 68 66.2 94% 29.97 0.0
04 01:55 NW 2 0.50 Fog VV005 68 66.2 74.1 65.5 94% 30 0.0
04 01:35 E 2 0.15 Fog VV000 68 66.2 94% 29.99 0.0
04 01:15 E 3 0.25 Fog VV002 66.2 64.4 94% 29.98 0.0
04 00:55 E 2 0.50 Fog VV005 66.2 64.4 94% 29.99 0.0
04 00:35 NW 2 0.50 Fog VV005 66.2 64.4 94% 30 0.0
04 00:15 SW 1 0.75 Fog/Mist VV005 66.2 64.4 94% 29.99 0.0
03 23:55 S 1 0.25 Fog VV002 66.2 64.4 94% 29.99 0.0
03 23:35 Calm 0.25 Fog VV002 66.2 64.4 94% 29.99 0.0
03 23:15 Calm 0.50 Fog VV005 68 64.4 88% 29.99 0.0
03 22:55 SE 1 0.50 Fog VV005 68 66.2 94% 29.98 0.0
03 22:35 W 1 0.50 Fog VV005 68 66.2 94% 29.99 0.0
03 22:15 Calm 0.50 Fog VV005 68 66.2 94% 29.98 0.0
03 21:55 E 2 0.50 Fog VV005 68 66.2 94% 29.98 0.0
03 21:35 N 1 1.00 Fog/Mist CLR 68 66.2 94% 29.97 0.0
03 21:15 E 5 0.50 Fog VV005 69.8 68 94% 29.96 0.0
03 20:55 E 1 10.00 Partly Cloudy SCT013 71.6 68 88% 29.96 0.0
03 20:35 SW 3 10.00 Overcast OVC013 71.6 68 88% 29.96 0.0
03 20:15 SE 2 10.00 Mostly Cloudy BKN013 73.4 68 83% 29.95 0.0
03 19:55 SE 5 10.00 Mostly Cloudy BKN013 73.4 69.8 77.5 68.2 89% 29.94 0.0
03 19:35 SE 6 10.00 Partly Cloudy SCT013 75.2 68 78% 76 29.94 0.0
03 19:15 SE 6 10.00 Mostly Cloudy BKN013 75.2 69.8 83% 75 29.93 0.0
03 18:55 S 8 10.00 Fair CLR 77 69.8 79% 79 29.93 0.0
03 18:35 S 8 10.00 A Few Clouds FEW014 77 69.8 79% 79 29.93 0.0
03 18:15 S 5 10.00 Partly Cloudy SCT014 77 69.8 79% 79 29.93 0.0
03 17:55 Vrbl 1 10.00 Fair CLR 77 69.8 79% 79 29.93 0.0
03 17:35 S 5 10.00 A Few Clouds FEW120 77 69.8 79% 79 29.91 0.0
03 17:15 S 8 10.00 Mostly Cloudy FEW008 BKN120 75.2 69.8 83% 75 29.91 0.0
03 16:55 S 6 10.00 Mostly Cloudy FEW008 BKN110 73.4 68 83% 29.92 0.0
03 16:35 S 6 10.00 Partly Cloudy SCT080 SCT110 73.4 68 83% 29.94 0.0
03 16:15 SE 5 10.00 Partly Cloudy SCT080 73.4 68 83% 29.95 0.0
03 15:55 SE 5 10.00 A Few Clouds FEW090 FEW120 73.4 68 83% 29.97 0.0
03 15:35 S 5 10.00 Mostly Cloudy FEW050 BKN100 BKN120 71.6 68 88% 30 0.0
03 15:15 Vrbl 1 10.00 Overcast SCT060 OVC100 69.8 66.2 88% 30 0.0
03 14:35 N 5 10.00 Mostly Cloudy BKN100 69.8 66.2 88% 29.97 0.0
03 14:15 N 6 10.00 Light Rain FEW065 FEW080 OVC100 68 64.4 88% 29.98 0.0
03 13:55 N 9 G 16 6.00 Light Rain Fog/Mist SCT095 SCT110 68 64.4 74.5 67.5 88% 30.01 0.0 1.14
03 13:35 N 14 G 38 1.00 Heavy Rain Haze BKN005 BKN012 BKN048 68 64.4 88% 30 0.0
03 13:15 N 16 G 21 2.00 Heavy Rain Fog/Mist SCT005 BKN008 OVC050 71.6 69.8 94% 29.94 0.0
03 12:55 Vrbl 3 10.00 Overcast SCT008 BKN065 OVC075 73.4 69.8 89% 29.93 0.0
03 12:35 Vrbl 5 10.00 Mostly Cloudy BKN065 BKN075 BKN100 73.4 69.8 89% 29.92 0.0
03 12:15 E 7 10.00 Mostly Cloudy FEW008 BKN065 BKN075 75.2 69.8 83% 75 29.93 0.0
03 11:55 SE 7 10.00 Light Rain FEW027 SCT070 SCT080 75.2 69.8 83% 75 29.94 0.0
03 11:35 E 5 10.00 Overcast OVC070 73.4 68 83% 29.95 0.0
03 11:15 E 6 10.00 Light Rain BKN070 BKN080 73.4 68 83% 29.95 0.0
03 10:55 SE 3 10.00 Overcast FEW005 BKN060 OVC085 73.4 68 83% 29.96 0.0
03 10:35 NE 5 10.00 Overcast FEW003 OVC070 71.6 68 88% 29.95 0.0
03 10:15 N 3 10.00 Mostly Cloudy SCT003 BKN070 71.6 68 88% 29.95 0.0
03 09:55 NE 2 10.00 Light Rain SCT003 SCT040 SCT120 69.8 68 94% 29.95 0.0 0.04
03 09:35 Vrbl 2 10.00 Partly Cloudy FEW032 FEW050 SCT120 69.8 66.2 88% 29.96 0.0
03 09:15 Vrbl 2 4.00 Rain Fog/Mist FEW030 BKN075 BKN085 69.8 66.2 88% 29.97 0.0
03 08:55 Vrbl 2 10.00 A Few Clouds FEW075 69.8 66.2 88% 29.96 0.0
03 08:35 Vrbl 2 10.00 A Few Clouds FEW110 69.8 66.2 88% 29.96 0.0
03 08:15 NE 1 10.00 Partly Cloudy SCT110 68 64.4 88% 29.96 0.0
03 07:55 Calm 7.00 Fog/Mist CLR 68 64.4 69.8 64.8 88% 29.96 0.0
03 07:35 Calm 0.50 Fog VV005 66.2 64.4 94% 29.96 0.0
03 07:15 N 1 0.15 Fog OVC015 64.4 62.6 94% 29.95 0.0
03 06:55 Calm 0.15 Fog OVC015 66.2 64.4 94% 29.95 0.0
03 06:35 N 1 0.50 Fog VV005 66.2 64.4 94% 29.95 0.0
03 06:15 NW 1 0.50 Fog VV005 66.2 64.4 94% 29.95 0.0
03 05:55 NE 1 0.25 Fog VV002 68 64.4 88% 29.95 0.0
03 05:35 N 1 1.25 Fog/Mist CLR 66.2 64.4 94% 29.95 0.0
03 05:15 W 1 0.25 Fog BKN055 66.2 64.4 94% 29.94 0.0
03 04:55 NW 1 0.50 Fog BKN055 68 66.2 94% 29.94 0.0
03 04:35 N 2 0.25 Fog VV002 66.2 64.4 94% 29.94 0.0
03 04:15 W 2 0.15 Fog VV000 68 64.4 88% 29.94 0.0
03 03:55 W 2 0.75 Fog/Mist VV005 68 66.2 94% 29.94 0.0
03 03:35 N 1 0.25 Fog VV002 68 64.4 88% 29.94 0.0
03 03:15 N 2 0.15 Fog VV000 68 64.4 88% 29.93 0.0
03 02:55 Calm 0.25 Fog VV002 69.8 66.2 88% 29.93 0.0
03 02:35 N 2 0.25 Fog VV002 69.8 66.2 88% 29.93 0.0
03 02:15 NW 1 0.15 Fog VV000 68 66.2 94% 29.94 0.0
03 01:55 N 1 0.25 Fog BKN090 69.8 68 81.3 68.9 94% 29.94 0.0
03 01:35 N 1 0.25 Fog VV002 69.8 68 94% 29.93 0.0
03 01:15 NE 1 0.25 Fog VV002 69.8 68 94% 29.93 0.0
03 00:55 Calm 0.15 Fog VV000 69.8 68 94% 29.92 0.0
03 00:35 W 2 0.25 Fog VV002 69.8 68 94% 29.91 0.0
03 00:15 W 1 0.25 Fog VV002 71.6 68 88% 29.91 0.0
02 23:55 W 1 0.75 Fog/Mist VV005 71.6 69.8 94% 29.9 0.0
02 23:35 NW 1 5.00 Fog/Mist CLR 73.4 69.8 89% 29.9 0.0
02 23:15 NW 3 6.00 Fog/Mist CLR 73.4 71.6 94% 29.91 0.0
02 22:55 N 5 0.50 Fog VV005 73.4 69.8 89% 29.91 0.0
02 22:35 NW 1 2.50 Fog/Mist CLR 73.4 71.6 94% 29.91 0.0
02 22:15 W 1 4.00 Fog/Mist CLR 73.4 71.6 94% 29.91 0.0
02 21:55 W 2 10.00 Fair CLR 73.4 71.6 94% 29.91 0.0
02 21:35 NW 2 8.00 Fair CLR 75.2 71.6 89% 75 29.91 0.0
02 21:15 W 2 10.00 Fair CLR 75.2 71.6 89% 75 29.9 0.0
02 20:55 W 2 10.00 Fair CLR 78.8 71.6 79% 82 29.9 0.0
02 20:35 W 3 10.00 Fair CLR 78.8 73.4 84% 82 29.89 0.0
02 20:15 W 2 10.00 Fair CLR 80.6 73.4 79% 85 29.89 0.0
02 19:55 NW 3 10.00 Fair CLR 80.6 73.4 88.7 78.6 79% 85 29.89 0.0
02 19:35 W 6 10.00 Fair CLR 82.4 73.4 74% 88 29.89 0.0
02 19:15 W 7 10.00 Fair CLR 84.2 73.4 70% 91 29.89 0.0
02 18:55 W 5 10.00 Fair CLR 82.4 73.4 74% 88 29.89 0.0
02 18:35 W 6 10.00 A Few Clouds FEW036 84.2 71.6 66% 90 29.89 0.0
02 18:15 NW 6 10.00 A Few Clouds FEW036 84.2 71.6 66% 90 29.88 0.0
02 17:55 NW 3 10.00 A Few Clouds FEW039 FEW120 82.4 71.6 70% 87 29.88 0.0
02 17:35 NW 5 10.00 Fair CLR 82.4 71.6 70% 87 29.88 0.0
02 17:15 N 5 10.00 A Few Clouds FEW120 80.6 73.4 79% 85 29.89 0.0
02 16:55 N 3 10.00 Mostly Cloudy BKN120 80.6 73.4 79% 85 29.88 0.0 0.04
02 16:35 NE 2 10.00 A Few Clouds FEW080 FEW120 80.6 73.4 79% 85 29.89 0.0
02 16:15 N 3 8.00 Light Rain FEW050 SCT070 BKN100 78.8 73.4 84% 82 29.9 0.0
02 15:55 NW 7 10.00 Mostly Cloudy BKN100 BKN120 84.2 69.8 62% 88 29.91 0.0
02 15:35 N 7 10.00 Partly Cloudy SCT120 86 69.8 59% 91 29.9 0.0
02 15:15 Vrbl 3 10.00 A Few Clouds FEW120 87.8 69.8 55% 93 29.9 0.0
02 14:55 Vrbl 5 10.00 A Few Clouds FEW043 FEW090 87.8 69.8 55% 93 29.91 0.0
02 14:35 NW 5 10.00 Mostly Cloudy SCT060 BKN090 BKN120 86 69.8 59% 91 29.93 0.0
02 14:15 W 10 10.00 Partly Cloudy SCT100 SCT120 87.8 69.8 55% 93 29.92 0.0
02 13:55 SW 9 10.00 Partly Cloudy SCT090 SCT120 87.8 69.8 87.8 74.5 55% 93 29.91 0.0
02 13:35 SW 9 10.00 Overcast OVC090 86 68 55% 89 29.92 0.0
02 13:15 W 7 10.00 Overcast OVC090 86 66.2 52% 88 29.92 0.0
02 12:55 Vrbl 3 10.00 Overcast OVC090 86 66.2 52% 88 29.93 0.0
02 12:35 SW 6 10.00 Overcast OVC090 86 66.2 52% 88 29.93 0.0
02 12:15 S 7 10.00 Mostly Cloudy BKN100 BKN110 86 66.2 52% 88 29.93 0.0
02 11:55 S 3 10.00 Mostly Cloudy BKN110 84.2 66.2 55% 87 29.93 0.0
02 11:35 Vrbl 2 10.00 Partly Cloudy SCT120 84.2 66.2 55% 87 29.93 0.0
02 11:15 Vrbl 1 10.00 Fair CLR 84.2 66.2 55% 87 29.93 0.0
02 10:55 NW 5 10.00 Fair CLR 82.4 68 62% 85 29.94 0.0
02 10:35 NW 5 10.00 Fair CLR 80.6 69.8 70% 84 29.94 0.0
02 10:15 NW 5 10.00 Fair CLR 80.6 69.8 70% 84 29.95 0.0
02 09:55 W 6 10.00 Partly Cloudy SCT048 78.8 69.8 74% 81 29.95 0.0
02 09:35 NW 8 10.00 Mostly Cloudy FEW030 SCT048 BKN085 78.8 71.6 79% 82 29.96 0.0
02 09:15 NW 10 10.00 Fair CLR 80.6 71.6 74% 85 29.94 0.0
02 08:55 W 6 10.00 Fair CLR 78.8 71.6 79% 82 29.93 0.0
02 08:35 W 7 10.00 Fair CLR 77 69.8 79% 79 29.94 0.0
02 08:15 W 7 10.00 Fair CLR 75.2 69.8 83% 75 29.94 0.0
02 07:55 SW 6 10.00 Fair CLR 75.2 69.8 76.8 72.7 83% 75 29.93 0.0
02 07:35 W 5 10.00 Fair CLR 73.4 68 83% 29.92 0.0
02 07:15 W 3 10.00 Fair CLR 73.4 68 83% 29.93 0.0
02 06:55 W 5 10.00 Fair CLR 73.4 68 83% 29.93 0.0
02 06:35 W 5 10.00 Fair CLR 73.4 68 83% 29.93 0.0
02 06:15 W 6 10.00 Fair CLR 75.2 68 78% 76 29.93 0.0
02 05:55 W 5 10.00 Light Rain FEW100 SCT120 75.2 68 78% 76 29.93 0.0
02 05:35 W 7 10.00 Partly Cloudy FEW080 SCT110 75.2 69.8 83% 75 29.95 0.0
02 05:15 W 8 10.00 A Few Clouds FEW090 77 69.8 79% 79 29.94 0.0
02 04:55 SW 5 10.00 A Few Clouds FEW120 75.2 71.6 89% 75 29.94 0.0
02 04:35 W 3 10.00 Partly Cloudy SCT120 75.2 71.6 89% 75 29.93 0.0
02 04:15 SW 3 10.00 Partly Cloudy SCT120 75.2 71.6 89% 75 29.92 0.0
02 03:55 W 3 10.00 Mostly Cloudy BKN120 75.2 71.6 89% 75 29.93 0.0 0.01
02 03:35 W 3 10.00 Light Rain FEW100 FEW120 75.2 71.6 89% 75 29.92 0.0
02 03:15 SW 5 10.00 A Few Clouds FEW120 75.2 71.6 89% 75 29.93 0.0
02 02:55 S 2 10.00 Fair CLR 77 71.6 83% 78 29.92 0.0
02 02:35 S 3 10.00 Fair CLR 75.2 71.6 89% 75 29.92 0.0
02 02:15 S 2 7.00 Fair CLR 73.4 71.6 94% 29.92 0.0
02 01:55 SE 2 5.00 Fog/Mist CLR 73.4 69.8 85.6 72.9 89% 29.92 0.0
02 01:35 S 2 6.00 Fog/Mist CLR 73.4 71.6 94% 29.92 0.0
Date Time (edt) Wind (mph) Vis. (mi.) Weather Sky Cond. Air Dwpt Max. Min. Relative Humidity Wind Chill (°F) Heat Index (°F) altimeter (in) sea level (mb) 1 hr 3 hr 6 hr
6 hour
Temperature (ºF) Pressure Precipitation (in)